Time,TemperatureF,DewpointF,PressureIn,WindDirection,WindDirectionDegrees,WindSpeedMPH,WindSpeedGustMPH,Humidity,HourlyPrecipIn,Conditions,Clouds,dailyrainin,SoftwareType,DateUTC
2016-09-30 00:04:00,51.0,49.0,29.71,WSW,237,3.5,3.5,93,0.09,RA,,0.01,WeatherDisplay:10.37,2016-09-29 23:04:00,
2016-09-30 00:09:00,51.0,49.0,29.71,WSW,239,2.3,2.3,93,0.11,RA,,0.03,WeatherDisplay:10.37,2016-09-29 23:09:00,
2016-09-30 00:14:00,50.9,48.9,29.71,WSW,255,2.3,2.3,93,0.09,RA,,0.03,WeatherDisplay:10.37,2016-09-29 23:14:00,
2016-09-30 00:19:00,50.8,48.8,29.71,WSW,258,2.3,2.3,93,0.09,,,0.03,WeatherDisplay:10.37,2016-09-29 23:19:00,
2016-09-30 00:24:00,50.9,49.2,29.71,SW,222,2.3,2.3,94,0.07,CLR,,0.03,WeatherDisplay:10.37,2016-09-29 23:24:00,
2016-09-30 00:29:00,51.0,49.3,29.71,WSW,240,3.5,3.5,94,0.07,CLR,,0.03,WeatherDisplay:10.37,2016-09-29 23:29:00,
2016-09-30 00:34:00,51.1,49.1,29.71,WSW,257,3.5,3.5,93,0.08,RA,,0.04,WeatherDisplay:10.37,2016-09-29 23:34:00,
2016-09-30 00:39:00,50.9,48.9,29.71,WSW,251,2.3,2.3,93,0.08,RA,,0.04,WeatherDisplay:10.37,2016-09-29 23:39:00,
2016-09-30 00:44:00,50.8,48.8,29.71,West,276,2.3,2.3,93,0.07,CLR,,0.04,WeatherDisplay:10.37,2016-09-29 23:44:00,
2016-09-30 00:49:00,50.8,48.8,29.71,WNW,302,2.3,2.3,93,0.06,CLR,,0.04,WeatherDisplay:10.37,2016-09-29 23:49:00,
2016-09-30 00:54:00,50.8,48.8,29.70,WNW,294,2.3,2.3,93,0.05,CLR,,0.04,WeatherDisplay:10.37,2016-09-29 23:54:00,
2016-09-30 00:59:00,50.9,48.7,29.70,West,272,2.3,2.3,92,0.04,CLR,,0.04,WeatherDisplay:10.37,2016-09-29 23:59:00,
2016-09-30 01:04:00,50.9,48.7,29.70,WSW,239,4.6,4.6,92,0.03,CLR,,0.04,WeatherDisplay:10.37,2016-09-30 00:04:00,
2016-09-30 01:09:00,51.0,48.5,29.70,WSW,239,6.9,6.9,91,0.02,RA,,0.05,WeatherDisplay:10.37,2016-09-30 00:09:00,
2016-09-30 01:14:00,51.0,48.8,29.70,West,265,6.9,6.9,92,0.02,RA,,0.06,WeatherDisplay:10.37,2016-09-30 00:14:00,
2016-09-30 01:19:00,51.0,48.8,29.70,West,264,6.0,6.0,92,0.02,RA,,0.06,WeatherDisplay:10.37,2016-09-30 00:19:00,
2016-09-30 01:24:00,51.1,48.6,29.70,SSW,208,4.6,4.6,91,0.02,CLR,,0.06,WeatherDisplay:10.37,2016-09-30 00:24:00,
2016-09-30 01:29:00,51.0,48.5,29.70,SW,236,2.3,2.3,91,0.02,CLR,,0.06,WeatherDisplay:10.37,2016-09-30 00:29:00,
2016-09-30 01:34:00,51.0,48.5,29.70,West,279,2.3,2.3,91,0.02,CLR,,0.06,WeatherDisplay:10.37,2016-09-30 00:34:00,
2016-09-30 01:39:00,51.0,48.5,29.70,WSW,256,3.0,3.0,91,0.02,CLR,,0.06,WeatherDisplay:10.37,2016-09-30 00:39:00,
2016-09-30 01:44:00,51.1,48.6,29.70,WNW,288,3.5,3.5,91,0.04,RA,,0.08,WeatherDisplay:10.37,2016-09-30 00:44:00,
2016-09-30 01:49:00,51.0,48.5,29.70,WSW,248,3.5,3.5,91,0.04,RA,,0.08,WeatherDisplay:10.37,2016-09-30 00:49:00,
2016-09-30 01:54:00,51.0,48.2,29.70,WSW,244,5.8,5.8,90,0.05,RA,,0.09,WeatherDisplay:10.37,2016-09-30 00:54:00,
2016-09-30 01:59:00,51.0,48.2,29.70,WSW,257,5.0,5.0,90,0.05,RA,,0.09,WeatherDisplay:10.37,2016-09-30 00:59:00,
2016-09-30 02:04:00,51.0,47.6,29.69,West,266,8.1,8.1,88,0.05,CLR,,0.09,WeatherDisplay:10.37,2016-09-30 01:04:00,
2016-09-30 02:09:00,51.1,47.4,29.69,West,267,6.9,6.9,87,0.04,CLR,,0.09,WeatherDisplay:10.37,2016-09-30 01:09:00,
2016-09-30 02:14:00,51.4,47.7,29.69,WSW,246,6.9,6.9,87,0.03,CLR,,0.09,WeatherDisplay:10.37,2016-09-30 01:14:00,
2016-09-30 02:19:00,51.4,47.4,29.69,West,263,8.1,8.1,86,0.03,CLR,,0.09,WeatherDisplay:10.37,2016-09-30 01:19:00,
2016-09-30 02:24:00,51.4,47.0,29.69,West,274,6.9,6.9,85,0.03,CLR,,0.09,WeatherDisplay:10.37,2016-09-30 01:24:00,
2016-09-30 02:29:00,51.3,47.3,29.68,WNW,287,6.9,6.9,86,0.03,CLR,,0.09,WeatherDisplay:10.37,2016-09-30 01:29:00,
2016-09-30 02:34:00,51.5,47.1,29.68,WSW,253,8.1,8.1,85,0.03,CLR,,0.09,WeatherDisplay:10.37,2016-09-30 01:34:00,
2016-09-30 02:39:00,51.6,47.2,29.68,West,263,6.9,6.9,85,0.03,CLR,,0.09,WeatherDisplay:10.37,2016-09-30 01:39:00,
2016-09-30 02:44:00,51.6,46.9,29.68,WNW,295,4.6,4.6,84,0.01,CLR,,0.09,WeatherDisplay:10.37,2016-09-30 01:44:00,
2016-09-30 02:49:00,51.6,46.9,29.68,WSW,240,4.0,4.0,84,0.01,CLR,,0.09,WeatherDisplay:10.37,2016-09-30 01:49:00,
2016-09-30 02:54:00,51.4,47.0,29.68,WSW,254,3.5,3.5,85,0.00,CLR,,0.09,WeatherDisplay:10.37,2016-09-30 01:54:00,
2016-09-30 02:59:00,51.4,47.4,29.68,WSW,246,4.6,4.6,86,0.00,CLR,,0.09,WeatherDisplay:10.37,2016-09-30 01:59:00,
2016-09-30 03:04:00,51.4,47.7,29.68,SW,231,6.9,6.9,87,0.00,CLR,,0.09,WeatherDisplay:10.37,2016-09-30 02:04:00,
2016-09-30 03:09:00,51.3,47.9,29.68,WSW,241,4.6,4.6,88,0.00,CLR,,0.09,WeatherDisplay:10.37,2016-09-30 02:09:00,
2016-09-30 03:14:00,51.3,48.2,29.68,WSW,238,4.0,4.0,89,0.00,CLR,,0.09,WeatherDisplay:10.37,2016-09-30 02:14:00,
2016-09-30 03:19:00,51.2,48.1,29.67,WSW,241,4.6,4.6,89,0.00,CLR,,0.09,WeatherDisplay:10.37,2016-09-30 02:19:00,
2016-09-30 03:24:00,51.0,48.2,29.67,SW,236,4.0,4.0,90,0.00,CLR,,0.09,WeatherDisplay:10.37,2016-09-30 02:24:00,
2016-09-30 03:29:00,50.9,48.1,29.68,WSW,239,3.5,3.5,90,0.00,CLR,,0.09,WeatherDisplay:10.37,2016-09-30 02:29:00,
2016-09-30 03:34:00,50.9,48.1,29.68,WSW,245,3.5,3.5,90,0.01,RA,,0.09,WeatherDisplay:10.37,2016-09-30 02:34:00,
2016-09-30 03:39:00,50.8,48.0,29.67,West,268,3.5,3.5,90,0.01,RA,,0.09,WeatherDisplay:10.37,2016-09-30 02:39:00,
2016-09-30 03:44:00,50.8,48.3,29.67,WSW,254,3.5,3.5,91,0.01,,,0.09,WeatherDisplay:10.37,2016-09-30 02:44:00,
2016-09-30 03:49:00,50.9,48.4,29.67,SW,230,4.6,4.6,91,0.01,CLR,,0.09,WeatherDisplay:10.37,2016-09-30 02:49:00,
2016-09-30 03:54:00,51.1,48.3,29.67,WSW,242,3.5,3.7,90,0.01,CLR,,0.09,WeatherDisplay:10.37,2016-09-30 02:54:00,
2016-09-30 03:59:00,51.0,48.2,29.67,SW,234,6.9,6.9,90,0.01,CLR,,0.09,WeatherDisplay:10.37,2016-09-30 02:59:00,
2016-09-30 04:04:00,51.0,48.2,29.67,WSW,238,8.1,8.1,90,0.01,CLR,,0.09,WeatherDisplay:10.37,2016-09-30 03:04:00,
2016-09-30 04:09:00,50.9,48.1,29.66,WSW,246,6.9,6.9,90,0.01,CLR,,0.09,WeatherDisplay:10.37,2016-09-30 03:09:00,
2016-09-30 04:14:00,51.1,48.3,29.66,West,266,4.6,4.6,90,0.01,CLR,,0.09,WeatherDisplay:10.37,2016-09-30 03:14:00,
2016-09-30 04:19:00,51.1,48.0,29.66,WSW,246,3.5,3.5,89,0.01,CLR,,0.09,WeatherDisplay:10.37,2016-09-30 03:19:00,
2016-09-30 04:24:00,51.1,48.3,29.66,WSW,245,3.5,3.5,90,0.01,CLR,,0.09,WeatherDisplay:10.37,2016-09-30 03:24:00,
2016-09-30 04:29:00,51.2,48.4,29.66,SW,236,3.5,3.5,90,0.01,CLR,,0.09,WeatherDisplay:10.37,2016-09-30 03:29:00,
2016-09-30 04:34:00,51.3,48.8,29.66,SW,236,3.5,3.5,91,0.00,CLR,,0.09,WeatherDisplay:10.37,2016-09-30 03:34:00,
2016-09-30 04:39:00,51.2,48.4,29.66,West,269,3.5,3.5,90,0.00,CLR,,0.09,WeatherDisplay:10.37,2016-09-30 03:39:00,
2016-09-30 04:44:00,51.2,48.7,29.66,WSW,242,4.6,4.6,91,0.00,CLR,,0.09,WeatherDisplay:10.37,2016-09-30 03:44:00,
2016-09-30 04:49:00,51.3,48.5,29.66,WSW,244,3.5,3.5,90,0.00,CLR,,0.09,WeatherDisplay:10.37,2016-09-30 03:49:00,
2016-09-30 04:54:00,51.3,48.5,29.66,WSW,239,4.0,4.0,90,0.00,CLR,,0.09,WeatherDisplay:10.37,2016-09-30 03:54:00,
2016-09-30 04:59:00,51.2,48.4,29.66,WSW,240,4.0,4.0,90,0.01,RA,,0.10,WeatherDisplay:10.37,2016-09-30 03:59:00,
2016-09-30 05:04:00,51.2,48.7,29.66,WSW,252,6.9,6.9,91,0.01,RA,,0.10,WeatherDisplay:10.37,2016-09-30 04:04:00,
2016-09-30 05:09:00,51.2,48.7,29.66,SW,236,3.5,3.5,91,0.01,,,0.10,WeatherDisplay:10.37,2016-09-30 04:09:00,
2016-09-30 05:14:00,51.2,48.7,29.66,West,262,3.5,3.5,91,0.02,RA,,0.11,WeatherDisplay:10.37,2016-09-30 04:14:00,
2016-09-30 05:19:00,51.2,48.7,29.66,SW,236,4.6,4.6,91,0.02,RA,,0.11,WeatherDisplay:10.37,2016-09-30 04:19:00,
2016-09-30 05:24:00,51.3,48.5,29.66,NW,305,4.6,4.6,90,0.02,CLR,,0.11,WeatherDisplay:10.37,2016-09-30 04:24:00,
2016-09-30 05:34:00,51.4,48.3,29.66,West,260,3.5,3.5,89,0.02,CLR,,0.11,WeatherDisplay:10.37,2016-09-30 04:34:00,
2016-09-30 05:39:00,51.4,48.3,29.66,WSW,238,3.5,3.5,89,0.02,CLR,,0.11,WeatherDisplay:10.37,2016-09-30 04:39:00,
2016-09-30 05:44:00,51.6,48.2,29.66,West,280,3.5,3.5,88,0.02,CLR,,0.11,WeatherDisplay:10.37,2016-09-30 04:44:00,
2016-09-30 05:49:00,51.5,48.1,29.66,WSW,238,3.5,3.5,88,0.02,CLR,,0.11,WeatherDisplay:10.37,2016-09-30 04:49:00,
2016-09-30 05:54:00,51.6,48.2,29.66,WSW,252,3.5,3.5,88,0.02,CLR,,0.11,WeatherDisplay:10.37,2016-09-30 04:54:00,
2016-09-30 05:59:00,51.6,48.5,29.66,WSW,257,3.5,3.5,89,0.01,CLR,,0.11,WeatherDisplay:10.37,2016-09-30 04:59:00,
2016-09-30 06:04:00,51.6,48.5,29.66,WSW,256,4.6,4.6,89,0.01,CLR,,0.11,WeatherDisplay:10.37,2016-09-30 05:04:00,
2016-09-30 06:09:00,51.7,48.6,29.66,WSW,240,6.9,6.9,89,0.01,CLR,,0.11,WeatherDisplay:10.37,2016-09-30 05:09:00,
2016-09-30 06:14:00,51.6,48.5,29.66,West,273,5.0,5.0,89,0.01,RA,,0.12,WeatherDisplay:10.37,2016-09-30 05:14:00,
2016-09-30 06:19:00,51.6,48.8,29.66,SW,236,3.5,3.5,90,0.01,RA,,0.12,WeatherDisplay:10.37,2016-09-30 05:19:00,
2016-09-30 06:24:00,51.6,48.8,29.66,WSW,249,4.6,4.6,90,0.01,,,0.12,WeatherDisplay:10.37,2016-09-30 05:24:00,
2016-09-30 06:29:00,51.6,48.8,29.66,WSW,243,4.6,4.6,90,0.01,CLR,,0.12,WeatherDisplay:10.37,2016-09-30 05:29:00,
2016-09-30 06:34:00,51.7,48.6,29.66,WSW,257,5.0,5.0,89,0.01,CLR,,0.12,WeatherDisplay:10.37,2016-09-30 05:34:00,
2016-09-30 06:39:00,51.7,48.6,29.66,WSW,250,7.0,7.0,89,0.01,CLR,,0.12,WeatherDisplay:10.37,2016-09-30 05:39:00,
2016-09-30 06:44:00,51.7,48.3,29.66,West,259,5.0,5.0,88,0.01,CLR,,0.12,WeatherDisplay:10.37,2016-09-30 05:44:00,
2016-09-30 06:49:00,51.8,48.4,29.66,WSW,248,7.0,7.0,88,0.01,CLR,,0.12,WeatherDisplay:10.37,2016-09-30 05:49:00,
2016-09-30 06:54:00,51.8,48.4,29.66,WSW,240,5.8,5.8,88,0.01,CLR,,0.12,WeatherDisplay:10.37,2016-09-30 05:54:00,
2016-09-30 06:59:00,51.9,48.5,29.66,WSW,246,4.6,4.6,88,0.01,CLR,,0.12,WeatherDisplay:10.37,2016-09-30 05:59:00,
2016-09-30 07:04:00,52.1,49.0,29.66,SW,236,8.1,8.1,89,0.01,CLR,,0.12,WeatherDisplay:10.37,2016-09-30 06:04:00,
2016-09-30 07:09:00,52.2,49.1,29.66,West,267,6.0,6.0,89,0.01,CLR,,0.12,WeatherDisplay:10.37,2016-09-30 06:09:00,
2016-09-30 07:14:00,52.1,49.0,29.66,SW,217,4.6,4.6,89,0.00,CLR,,0.12,WeatherDisplay:10.37,2016-09-30 06:14:00,
2016-09-30 07:19:00,52.2,49.4,29.66,SW,234,6.9,6.9,90,0.00,CLR,,0.12,WeatherDisplay:10.37,2016-09-30 06:19:00,
2016-09-30 07:24:00,52.0,49.2,29.66,SW,233,8.1,8.1,90,0.00,CLR,,0.12,WeatherDisplay:10.37,2016-09-30 06:24:00,
2016-09-30 07:29:00,51.9,49.1,29.66,WSW,238,5.8,5.8,90,0.00,CLR,,0.12,WeatherDisplay:10.37,2016-09-30 06:29:00,
2016-09-30 07:34:00,51.8,49.0,29.66,WSW,238,6.9,6.9,90,0.00,CLR,,0.12,WeatherDisplay:10.37,2016-09-30 06:34:00,
2016-09-30 07:39:00,51.8,49.0,29.67,West,271,3.5,3.5,90,0.01,RA,,0.13,WeatherDisplay:10.37,2016-09-30 06:39:00,
2016-09-30 07:44:00,51.8,49.0,29.67,WSW,245,3.5,3.5,90,0.01,RA,,0.13,WeatherDisplay:10.37,2016-09-30 06:44:00,
2016-09-30 07:49:00,51.7,48.9,29.67,WSW,246,4.6,4.6,90,0.01,,,0.13,WeatherDisplay:10.37,2016-09-30 06:49:00,
2016-09-30 07:54:00,51.6,48.8,29.67,WSW,249,5.8,5.8,90,0.02,RA,,0.13,WeatherDisplay:10.37,2016-09-30 06:54:00,
2016-09-30 07:59:00,51.3,48.5,29.67,SW,232,4.6,4.6,90,0.02,RA,,0.14,WeatherDisplay:10.37,2016-09-30 06:59:00,
2016-09-30 08:04:00,51.0,48.2,29.67,SW,235,4.6,4.6,90,0.04,RA,,0.16,WeatherDisplay:10.37,2016-09-30 07:04:00,
2016-09-30 08:09:00,50.8,48.0,29.67,WSW,255,5.8,5.8,90,0.05,RA,,0.17,WeatherDisplay:10.37,2016-09-30 07:09:00,
2016-09-30 08:14:00,50.9,48.1,29.67,WSW,247,8.1,8.1,90,0.06,RA,,0.17,WeatherDisplay:10.37,2016-09-30 07:14:00,
2016-09-30 08:19:00,50.7,47.9,29.67,WSW,246,6.9,6.9,90,0.08,RA,,0.20,WeatherDisplay:10.37,2016-09-30 07:19:00,
2016-09-30 08:24:00,50.6,47.8,29.67,WSW,237,4.6,4.6,90,0.09,RA,,0.20,WeatherDisplay:10.37,2016-09-30 07:24:00,
2016-09-30 08:29:00,50.5,47.7,29.67,WSW,249,4.6,4.6,90,0.10,RA,,0.22,WeatherDisplay:10.37,2016-09-30 07:29:00,
2016-09-30 08:34:00,50.5,47.7,29.67,SW,236,5.0,5.0,90,0.11,RA,,0.23,WeatherDisplay:10.37,2016-09-30 07:34:00,
2016-09-30 08:39:00,50.5,47.7,29.68,SW,231,4.0,4.0,90,0.10,RA,,0.23,WeatherDisplay:10.37,2016-09-30 07:39:00,
2016-09-30 08:44:00,50.6,47.8,29.68,WSW,239,3.5,3.5,90,0.10,CLR,,0.23,WeatherDisplay:10.37,2016-09-30 07:44:00,
2016-09-30 08:49:00,50.7,47.9,29.68,WSW,244,4.6,4.6,90,0.10,CLR,,0.23,WeatherDisplay:10.37,2016-09-30 07:49:00,
2016-09-30 08:54:00,51.0,48.2,29.68,SW,226,6.0,6.0,90,0.09,CLR,,0.23,WeatherDisplay:10.37,2016-09-30 07:54:00,
2016-09-30 08:59:00,51.0,48.2,29.68,SW,228,3.5,3.5,90,0.09,CLR,,0.23,WeatherDisplay:10.37,2016-09-30 07:59:00,
2016-09-30 09:09:00,50.9,48.1,29.68,WSW,240,4.6,4.6,90,0.06,CLR,,0.23,WeatherDisplay:10.37,2016-09-30 08:09:00,
2016-09-30 09:14:00,50.7,47.9,29.69,WSW,255,3.5,3.5,90,0.06,RA,,0.24,WeatherDisplay:10.37,2016-09-30 08:14:00,
2016-09-30 09:19:00,50.6,47.8,29.69,SW,229,3.5,3.5,90,0.04,RA,,0.24,WeatherDisplay:10.37,2016-09-30 08:19:00,
2016-09-30 09:24:00,50.4,47.9,29.69,SW,225,3.5,3.5,91,0.03,,,0.24,WeatherDisplay:10.37,2016-09-30 08:24:00,
2016-09-30 09:34:00,50.4,47.9,29.69,WSW,240,3.5,3.5,91,0.01,CLR,,0.24,WeatherDisplay:10.37,2016-09-30 08:34:00,
2016-09-30 09:39:00,50.5,48.0,29.69,WSW,246,1.2,1.2,91,0.01,CLR,,0.24,WeatherDisplay:10.37,2016-09-30 08:39:00,
2016-09-30 09:44:00,50.5,48.0,29.69,WSW,240,1.2,1.2,91,0.01,CLR,,0.24,WeatherDisplay:10.37,2016-09-30 08:44:00,
2016-09-30 09:49:00,50.6,48.1,29.69,WSW,242,1.2,1.2,91,0.01,CLR,,0.24,WeatherDisplay:10.37,2016-09-30 08:49:00,
2016-09-30 09:54:00,50.7,48.2,29.69,SW,230,2.3,2.3,91,0.01,CLR,,0.24,WeatherDisplay:10.37,2016-09-30 08:54:00,
2016-09-30 09:59:00,50.8,48.6,29.69,SW,215,3.5,3.5,92,0.01,CLR,,0.24,WeatherDisplay:10.37,2016-09-30 08:59:00,
2016-09-30 10:04:00,50.8,48.6,29.69,SW,231,3.5,3.5,92,0.01,CLR,,0.24,WeatherDisplay:10.37,2016-09-30 09:04:00,
2016-09-30 10:09:00,51.0,48.8,29.69,WSW,240,3.5,3.5,92,0.01,CLR,,0.24,WeatherDisplay:10.37,2016-09-30 09:09:00,
2016-09-30 10:14:00,51.2,49.0,29.69,SW,226,4.0,4.0,92,0.00,CLR,,0.24,WeatherDisplay:10.37,2016-09-30 09:14:00,
2016-09-30 10:19:00,51.2,48.7,29.69,WSW,238,3.5,3.5,91,0.00,CLR,,0.24,WeatherDisplay:10.37,2016-09-30 09:19:00,
2016-09-30 10:24:00,51.2,48.7,29.69,WSW,244,3.5,3.5,91,0.01,RA,,0.24,WeatherDisplay:10.37,2016-09-30 09:24:00,
2016-09-30 10:29:00,51.1,48.3,29.69,WSW,238,5.0,5.0,90,0.01,RA,,0.24,WeatherDisplay:10.37,2016-09-30 09:29:00,
2016-09-30 10:34:00,51.2,48.4,29.70,WSW,243,3.5,3.5,90,0.01,CLR,,0.24,WeatherDisplay:10.37,2016-09-30 09:34:00,
2016-09-30 10:39:00,51.3,48.8,29.70,WSW,244,3.5,3.5,91,0.01,CLR,,0.24,WeatherDisplay:10.37,2016-09-30 09:39:00,
2016-09-30 10:49:00,51.5,48.7,29.69,WSW,237,3.5,3.5,90,0.01,CLR,,0.24,WeatherDisplay:10.37,2016-09-30 09:49:00,
2016-09-30 10:54:00,51.6,48.8,29.69,WSW,237,4.6,4.6,90,0.01,CLR,,0.24,WeatherDisplay:10.37,2016-09-30 09:54:00,
2016-09-30 10:59:00,51.7,48.9,29.69,SW,230,5.8,5.8,90,0.01,CLR,,0.24,WeatherDisplay:10.37,2016-09-30 09:59:00,
2016-09-30 11:04:00,51.9,49.1,29.69,SW,236,5.0,5.0,90,0.01,CLR,,0.24,WeatherDisplay:10.37,2016-09-30 10:04:00,
2016-09-30 11:09:00,51.8,49.0,29.70,SSW,213,4.6,4.6,90,0.01,CLR,,0.24,WeatherDisplay:10.37,2016-09-30 10:09:00,
2016-09-30 11:14:00,51.8,49.0,29.70,SW,225,8.1,8.1,90,0.01,CLR,,0.24,WeatherDisplay:10.37,2016-09-30 10:14:00,
2016-09-30 11:19:00,51.7,48.9,29.70,SW,223,10.4,10.4,90,0.01,CLR,,0.24,WeatherDisplay:10.37,2016-09-30 10:19:00,
2016-09-30 11:24:00,51.5,49.0,29.70,SW,215,8.1,8.1,91,0.00,CLR,,0.24,WeatherDisplay:10.37,2016-09-30 10:24:00,
2016-09-30 11:29:00,51.6,49.1,29.70,SW,234,8.0,8.0,91,0.00,CLR,,0.24,WeatherDisplay:10.37,2016-09-30 10:29:00,
2016-09-30 11:35:00,51.6,48.8,29.70,SW,232,8.1,8.1,90,0.00,CLR,,0.24,WeatherDisplay:10.37,2016-09-30 10:35:00,
2016-09-30 11:39:00,51.6,48.5,29.70,SW,236,6.9,6.9,89,0.00,CLR,,0.24,WeatherDisplay:10.37,2016-09-30 10:39:00,
2016-09-30 11:45:00,51.8,48.7,29.70,WSW,237,6.9,6.9,89,0.00,CLR,,0.24,WeatherDisplay:10.37,2016-09-30 10:45:00,
2016-09-30 11:49:00,51.8,48.4,29.70,WSW,248,10.4,10.4,88,0.00,CLR,,0.24,WeatherDisplay:10.37,2016-09-30 10:49:00,
2016-09-30 11:55:00,51.7,48.6,29.70,SW,226,10.4,10.4,89,0.00,CLR,,0.24,WeatherDisplay:10.37,2016-09-30 10:55:00,
2016-09-30 12:00:00,51.5,48.7,29.70,SW,217,9.2,9.2,90,0.00,CLR,,0.24,WeatherDisplay:10.37,2016-09-30 11:00:00,
2016-09-30 12:05:00,51.3,48.5,29.70,WNW,288,6.9,6.9,90,0.00,CLR,,0.24,WeatherDisplay:10.37,2016-09-30 11:05:00,
2016-09-30 12:10:00,51.1,48.6,29.70,SW,230,9.2,9.2,91,0.00,CLR,,0.24,WeatherDisplay:10.37,2016-09-30 11:10:00,
2016-09-30 12:15:00,51.0,48.8,29.70,SW,216,6.9,6.9,92,0.00,CLR,,0.24,WeatherDisplay:10.37,2016-09-30 11:15:00,
2016-09-30 12:20:00,51.1,48.9,29.71,SW,221,6.9,6.9,92,0.01,RA,,0.25,WeatherDisplay:10.37,2016-09-30 11:20:00,
2016-09-30 12:25:00,51.1,48.9,29.71,SW,230,8.1,8.1,92,0.01,RA,,0.25,WeatherDisplay:10.37,2016-09-30 11:25:00,
2016-09-30 12:30:00,50.9,48.7,29.71,SSW,211,6.9,6.9,92,0.01,,,0.25,WeatherDisplay:10.37,2016-09-30 11:30:00,
2016-09-30 12:35:00,50.8,48.6,29.71,SW,227,8.1,8.1,92,0.01,CLR,,0.25,WeatherDisplay:10.37,2016-09-30 11:35:00,
2016-09-30 12:40:00,51.0,48.5,29.70,NW,304,9.2,9.2,91,0.01,CLR,,0.25,WeatherDisplay:10.37,2016-09-30 11:40:00,
2016-09-30 12:45:00,51.4,48.9,29.71,SW,231,6.9,6.9,91,0.01,CLR,,0.25,WeatherDisplay:10.37,2016-09-30 11:45:00,
2016-09-30 12:55:00,51.4,48.6,29.71,SW,233,8.1,8.1,90,0.01,CLR,,0.25,WeatherDisplay:10.37,2016-09-30 11:55:00,
2016-09-30 13:00:00,51.4,48.9,29.71,WSW,240,7.0,7.0,91,0.01,CLR,,0.25,WeatherDisplay:10.37,2016-09-30 12:00:00,
2016-09-30 13:05:00,51.6,49.1,29.71,SW,233,6.9,6.9,91,0.01,CLR,,0.25,WeatherDisplay:10.37,2016-09-30 12:05:00,
2016-09-30 13:10:00,51.6,48.8,29.71,SW,220,7.0,7.0,90,0.02,RA,,0.26,WeatherDisplay:10.37,2016-09-30 12:10:00,
2016-09-30 13:15:00,51.5,48.7,29.71,WSW,239,8.1,8.1,90,0.02,RA,,0.27,WeatherDisplay:10.37,2016-09-30 12:15:00,
2016-09-30 13:20:00,51.4,48.6,29.72,SW,225,6.9,6.9,90,0.03,RA,,0.28,WeatherDisplay:10.37,2016-09-30 12:20:00,
2016-09-30 13:25:00,51.3,48.5,29.72,WSW,243,8.1,8.1,90,0.05,RA,,0.30,WeatherDisplay:10.37,2016-09-30 12:25:00,
2016-09-30 13:30:00,51.1,48.6,29.72,WSW,249,3.5,3.5,91,0.06,RA,,0.31,WeatherDisplay:10.37,2016-09-30 12:30:00,
2016-09-30 13:35:00,50.9,48.4,29.72,WSW,246,3.5,3.5,91,0.09,RA,,0.34,WeatherDisplay:10.37,2016-09-30 12:35:00,
2016-09-30 13:40:00,50.5,47.7,29.72,WSW,254,2.3,2.3,90,0.09,RA,,0.35,WeatherDisplay:10.37,2016-09-30 12:40:00,
2016-09-30 13:45:00,50.3,47.2,29.72,West,268,2.3,2.3,89,0.09,RA,,0.35,WeatherDisplay:10.37,2016-09-30 12:45:00,
2016-09-30 13:50:00,50.4,47.6,29.72,NW,315,1.2,1.2,90,0.10,RA,,0.35,WeatherDisplay:10.37,2016-09-30 12:50:00,
2016-09-30 13:55:00,51.1,48.6,29.72,WSW,245,1.2,1.2,91,0.10,RA,,0.35,WeatherDisplay:10.37,2016-09-30 12:55:00,
2016-09-30 14:00:00,51.0,48.2,29.72,SW,220,2.3,2.3,90,0.10,,,0.35,WeatherDisplay:10.37,2016-09-30 13:00:00,
2016-09-30 14:05:00,51.2,48.4,29.72,SW,219,3.5,3.5,90,0.12,RA,,0.37,WeatherDisplay:10.37,2016-09-30 13:05:00,
2016-09-30 14:10:00,51.2,48.4,29.72,SW,217,1.2,1.2,90,0.12,RA,,0.38,WeatherDisplay:10.37,2016-09-30 13:10:00,
2016-09-30 14:15:00,51.2,48.4,29.72,WSW,247,2.3,2.3,90,0.12,RA,,0.39,WeatherDisplay:10.37,2016-09-30 13:15:00,
2016-09-30 14:20:00,51.2,48.4,29.72,WSW,244,3.5,3.5,90,0.11,RA,,0.39,WeatherDisplay:10.37,2016-09-30 13:20:00,
2016-09-30 14:25:00,51.4,48.6,29.72,WSW,254,2.3,2.3,90,0.10,RA,,0.40,WeatherDisplay:10.37,2016-09-30 13:25:00,
2016-09-30 14:30:00,51.4,48.6,29.72,WNW,296,2.3,2.3,90,0.09,RA,,0.41,WeatherDisplay:10.37,2016-09-30 13:30:00,
2016-09-30 14:35:00,51.3,48.5,29.71,SW,221,1.2,1.2,90,0.07,RA,,0.41,WeatherDisplay:10.37,2016-09-30 13:35:00,
2016-09-30 14:40:00,51.3,48.5,29.71,SSW,209,1.2,1.2,90,0.07,RA,,0.42,WeatherDisplay:10.37,2016-09-30 13:40:00,
2016-09-30 14:45:00,51.2,48.4,29.71,SW,221,1.2,1.2,90,0.07,RA,,0.42,WeatherDisplay:10.37,2016-09-30 13:45:00,
2016-09-30 14:50:00,51.2,48.4,29.72,SW,224,3.5,3.5,90,0.06,,,0.42,WeatherDisplay:10.37,2016-09-30 13:50:00,
2016-09-30 14:55:00,51.2,48.4,29.72,SW,232,2.3,2.3,90,0.07,RA,,0.43,WeatherDisplay:10.37,2016-09-30 13:55:00,
2016-09-30 15:00:00,51.3,48.5,29.71,WSW,255,1.2,1.2,90,0.07,RA,,0.43,WeatherDisplay:10.37,2016-09-30 14:00:00,
2016-09-30 15:05:00,51.3,48.5,29.71,SW,226,2.3,2.3,90,0.06,RA,,0.43,WeatherDisplay:10.37,2016-09-30 14:05:00,
2016-09-30 15:10:00,51.6,49.1,29.71,WNW,298,1.2,1.2,91,0.06,RA,,0.44,WeatherDisplay:10.37,2016-09-30 14:10:00,
2016-09-30 15:15:00,51.6,48.8,29.71,WSW,252,2.3,2.3,90,0.06,RA,,0.44,WeatherDisplay:10.37,2016-09-30 14:15:00,
2016-09-30 15:20:00,51.5,48.7,29.71,SW,222,3.5,3.5,90,0.05,,,0.44,WeatherDisplay:10.37,2016-09-30 14:20:00,
2016-09-30 15:25:00,51.6,48.8,29.71,West,265,3.5,3.5,90,0.04,CLR,,0.45,WeatherDisplay:10.37,2016-09-30 14:25:00,
2016-09-30 15:30:00,51.2,47.8,29.71,SW,235,8.1,8.1,88,0.04,RA,,0.45,WeatherDisplay:10.37,2016-09-30 14:30:00,
2016-09-30 15:35:00,51.0,47.3,29.71,WNW,283,8.1,8.1,87,0.05,RA,,0.46,WeatherDisplay:10.37,2016-09-30 14:35:00,
2016-09-30 15:40:00,51.2,47.2,29.71,WSW,240,8.1,8.1,86,0.05,RA,,0.46,WeatherDisplay:10.37,2016-09-30 14:40:00,
2016-09-30 15:45:00,51.3,47.3,29.71,SW,226,6.9,6.9,86,0.05,RA,,0.46,WeatherDisplay:10.37,2016-09-30 14:45:00,
2016-09-30 15:50:00,51.9,47.8,29.71,WSW,244,4.6,4.6,86,0.05,CLR,,0.46,WeatherDisplay:10.37,2016-09-30 14:50:00,
2016-09-30 15:55:00,52.1,48.0,29.71,West,266,6.9,6.9,86,0.04,CLR,,0.46,WeatherDisplay:10.37,2016-09-30 14:55:00,
2016-09-30 16:00:00,52.6,48.5,29.71,WSW,253,4.6,4.6,86,0.04,CLR,,0.46,WeatherDisplay:10.37,2016-09-30 15:00:00,
2016-09-30 16:05:00,52.4,48.0,29.71,WNW,302,4.6,4.6,85,0.03,CLR,,0.46,WeatherDisplay:10.37,2016-09-30 15:05:00,
2016-09-30 16:10:00,52.2,47.2,29.71,NW,306,3.5,3.5,83,0.02,CLR,,0.46,WeatherDisplay:10.37,2016-09-30 15:10:00,
2016-09-30 16:15:00,52.7,47.0,29.71,WSW,258,3.5,3.5,81,0.02,CLR,,0.46,WeatherDisplay:10.37,2016-09-30 15:15:00,
2016-09-30 16:20:00,53.3,47.6,29.71,NW,313,3.5,3.5,81,0.02,CLR,,0.46,WeatherDisplay:10.37,2016-09-30 15:20:00,
2016-09-30 16:25:00,53.9,48.2,29.71,NW,312,3.5,3.5,81,0.02,CLR,,0.46,WeatherDisplay:10.37,2016-09-30 15:25:00,
2016-09-30 16:30:00,54.0,48.0,29.71,WNW,294,3.5,3.5,80,0.02,CLR,,0.46,WeatherDisplay:10.37,2016-09-30 15:30:00,
2016-09-30 16:35:00,54.1,48.1,29.71,West,265,1.2,1.2,80,0.01,CLR,,0.46,WeatherDisplay:10.37,2016-09-30 15:35:00,
2016-09-30 16:40:00,53.6,47.2,29.71,NW,305,3.5,3.5,79,0.00,CLR,,0.46,WeatherDisplay:10.37,2016-09-30 15:40:00,
2016-09-30 16:46:00,53.2,47.2,29.71,NW,304,3.5,3.5,80,0.00,CLR,,0.46,WeatherDisplay:10.37,2016-09-30 15:46:00,
2016-09-30 16:51:00,53.1,47.4,29.71,WNW,294,4.6,4.6,81,0.00,CLR,,0.46,WeatherDisplay:10.37,2016-09-30 15:51:00,
2016-09-30 16:56:00,53.0,47.7,29.71,WNW,294,6.9,6.9,82,0.00,CLR,,0.46,WeatherDisplay:10.37,2016-09-30 15:56:00,
2016-09-30 17:01:00,52.7,47.7,29.71,NW,305,5.8,5.8,83,0.01,RA,,0.47,WeatherDisplay:10.37,2016-09-30 16:01:00,
2016-09-30 17:06:00,52.4,47.7,29.71,NW,305,5.8,5.8,84,0.01,RA,,0.47,WeatherDisplay:10.37,2016-09-30 16:06:00,
2016-09-30 17:11:00,51.7,47.0,29.71,West,265,5.0,5.0,84,0.01,CLR,,0.47,WeatherDisplay:10.37,2016-09-30 16:11:00,
2016-09-30 17:16:00,51.5,47.5,29.71,NW,312,3.5,3.5,86,0.01,CLR,,0.47,WeatherDisplay:10.37,2016-09-30 16:16:00,
2016-09-30 17:21:00,51.7,47.6,29.71,WNW,286,4.6,4.6,86,0.01,CLR,,0.47,WeatherDisplay:10.37,2016-09-30 16:21:00,
2016-09-30 17:26:00,51.8,47.7,29.71,West,275,5.8,5.8,86,0.01,CLR,,0.47,WeatherDisplay:10.37,2016-09-30 16:26:00,
2016-09-30 17:31:00,51.7,48.0,29.71,West,264,4.6,4.6,87,0.01,CLR,,0.47,WeatherDisplay:10.37,2016-09-30 16:31:00,
2016-09-30 17:36:00,51.7,47.6,29.72,West,267,5.8,5.8,86,0.02,RA,,0.48,WeatherDisplay:10.37,2016-09-30 16:36:00,
2016-09-30 17:41:00,51.3,47.3,29.71,West,267,3.5,3.5,86,0.02,RA,,0.49,WeatherDisplay:10.37,2016-09-30 16:41:00,
2016-09-30 17:46:00,51.0,47.0,29.71,West,271,2.3,2.3,86,0.03,RA,,0.50,WeatherDisplay:10.37,2016-09-30 16:46:00,
2016-09-30 17:51:00,51.0,47.0,29.72,WSW,252,2.3,2.3,86,0.04,RA,,0.50,WeatherDisplay:10.37,2016-09-30 16:51:00,
2016-09-30 17:56:00,51.0,47.0,29.72,WNW,298,1.2,1.2,86,0.04,RA,,0.50,WeatherDisplay:10.37,2016-09-30 16:56:00,
2016-09-30 18:01:00,51.0,47.0,29.72,WNW,288,1.2,1.2,86,0.03,CLR,,0.50,WeatherDisplay:10.37,2016-09-30 17:01:00,
2016-09-30 18:06:00,51.0,47.3,29.72,NNE,26,0.0,0.0,87,0.03,CLR,,0.50,WeatherDisplay:10.37,2016-09-30 17:06:00,
2016-09-30 18:16:00,51.0,47.3,29.72,NNW,332,0.0,0.0,87,0.03,CLR,,0.50,WeatherDisplay:10.37,2016-09-30 17:16:00,
2016-09-30 18:21:00,50.8,47.1,29.72,East,79,0.0,0.0,87,0.03,CLR,,0.50,WeatherDisplay:10.37,2016-09-30 17:21:00,
2016-09-30 18:26:00,50.7,47.3,29.72,NNE,30,1.2,1.2,88,0.03,CLR,,0.50,WeatherDisplay:10.37,2016-09-30 17:26:00,